• In Latvia
  • List of Countries
  • For 7 days
  • Water Temperature
  • Satellite Maps
  • Weather Map
  • Weather Widgets
  • user-avatar
    Login

    Hourly Weather Salta

    Today, 27 July, Thursday

    Time Temperature Precipitation Wind Pressure Humidity
    00:00 +16°C° 0 mm 1 mps 653 mmHg 74%
    01:00 +16°C° 0 mm 1 mps 653 mmHg 72%
    02:00 +16°C° 0 mm 1 mps 653 mmHg 70%
    03:00 +16°C° 0 mm 1 mps 653 mmHg 68%
    04:00 +16°C° 0 mm 1 mps 652 mmHg 66%
    05:00 +16°C° 0 mm 1 mps 652 mmHg 65%
    06:00 +16°C° 0 mm 1 mps 652 mmHg 62%
    07:00 +18°C° 0 mm 1 mps 653 mmHg 59%
    08:00 +18°C° 0 mm 1 mps 653 mmHg 57%
    09:00 +19°C° 0 mm 2 mps 654 mmHg 53%
    10:00 +21°C° 0 mm 2 mps 654 mmHg 49%
    11:00 +24°C° 0 mm 2 mps 654 mmHg 45%
    12:00 +25°C° 0 mm 2 mps 654 mmHg 43%
    13:00 +26°C° 0 mm 3 mps 654 mmHg 42%
    14:00 +27°C° 0 mm 3 mps 653 mmHg 40%
    15:00 +26°C° 0 mm 3 mps 653 mmHg 43%
    16:00 +26°C° 0 mm 3 mps 652 mmHg 46%
    17:00 +25°C° 0 mm 2 mps 652 mmHg 49%
    18:00 +23°C° 0 mm 2 mps 652 mmHg 57%
    19:00 +21°C° 0 mm 1 mps 652 mmHg 64%
    20:00 +19°C° 0 mm 1 mps 651 mmHg 71%
    21:00 +19°C° 0 mm 1 mps 651 mmHg 69%
    22:00 +18°C° 0 mm 1 mps 651 mmHg 67%
    23:00 +18°C° 0 mm 1 mps 651 mmHg 65%

    Tomorrow, 28 July, Friday

    Time Temperature Precipitation Wind Pressure Humidity
    00:00 +18°C° 0 mm 1 mps 651 mmHg 62%
    01:00 +18°C° 0 mm 1 mps 651 mmHg 59%
    02:00 +16°C° 0 mm 1 mps 651 mmHg 55%
    03:00 +16°C° 0 mm 2 mps 650 mmHg 53%
    04:00 +16°C° 0 mm 2 mps 650 mmHg 50%
    05:00 +16°C° 0 mm 2 mps 650 mmHg 48%
    06:00 +16°C° 0 mm 2 mps 650 mmHg 45%
    07:00 +17°C° 0 mm 2 mps 651 mmHg 43%
    08:00 +17°C° 0 mm 2 mps 651 mmHg 41%
    09:00 +20°C° 0 mm 2 mps 652 mmHg 36%
    10:00 +24°C° 0 mm 2 mps 653 mmHg 31%
    11:00 +27°C° 0 mm 2 mps 653 mmHg 27%
    12:00 +27°C° 0 mm 2 mps 653 mmHg 26%
    13:00 +28°C° 0 mm 3 mps 652 mmHg 26%
    14:00 +29°C° 0 mm 3 mps 652 mmHg 26%
    15:00 +28°C° 0 mm 3 mps 652 mmHg 29%
    16:00 +27°C° 0 mm 2 mps 651 mmHg 32%
    17:00 +26°C° 0 mm 2 mps 651 mmHg 35%
    18:00 +24°C° 0 mm 2 mps 651 mmHg 41%
    19:00 +22°C° 0 mm 1 mps 651 mmHg 46%
    20:00 +20°C° 0 mm 1 mps 650 mmHg 52%
    21:00 +19°C° 0 mm 1 mps 650 mmHg 51%
    22:00 +19°C° 0 mm 1 mps 651 mmHg 50%
    23:00 +19°C° 0 mm 1 mps 651 mmHg 49%

    Day after tomorrow, 29 July, Saturday

    Time Temperature Precipitation Wind Pressure Humidity
    00:00 +18°C° 0 mm 1 mps 650 mmHg 47%
    01:00 +18°C° 0 mm 1 mps 650 mmHg 45%
    02:00 +18°C° 0 mm 1 mps 650 mmHg 43%
    03:00 +16°C° 0 mm 1 mps 650 mmHg 42%
    04:00 +16°C° 0 mm 2 mps 650 mmHg 41%
    05:00 +16°C° 0 mm 2 mps 650 mmHg 40%
    06:00 +18°C° 0 mm 1 mps 650 mmHg 39%
    07:00 +18°C° 0 mm 1 mps 651 mmHg 37%
    08:00 +19°C° 0 mm 1 mps 652 mmHg 35%
    09:00 +22°C° 0 mm 1 mps 653 mmHg 31%
    10:00 +24°C° 0 mm 1 mps 653 mmHg 27%
    11:00 +27°C° 0 mm 2 mps 654 mmHg 23%
    12:00 +28°C° 0 mm 2 mps 654 mmHg 23%
    13:00 +28°C° 0 mm 2 mps 654 mmHg 23%
    14:00 +29°C° 0 mm 2 mps 653 mmHg 23%
    15:00 +28°C° 0 mm 2 mps 653 mmHg 27%
    16:00 +27°C° 0 mm 2 mps 653 mmHg 30%
    17:00 +26°C° 0 mm 2 mps 652 mmHg 34%
    18:00 +24°C° 0 mm 2 mps 653 mmHg 42%
    19:00 +22°C° 0 mm 1 mps 653 mmHg 51%
    20:00 +20°C° 0 mm 1 mps 653 mmHg 59%
    21:00 +19°C° 0 mm 1 mps 653 mmHg 60%
    22:00 +19°C° 0 mm 1 mps 653 mmHg 61%
    23:00 +19°C° 0 mm 1 mps 654 mmHg 62%

    30 July, Sunday

    Time Temperature Precipitation Wind Pressure Humidity
    00:00 +18°C° 0 mm 1 mps 653 mmHg 62%
    01:00 +18°C° 0 mm 1 mps 653 mmHg 62%
    02:00 +18°C° 0 mm 1 mps 652 mmHg 62%
    03:00 +18°C° 0 mm 1 mps 652 mmHg 61%
    04:00 +16°C° 0 mm 1 mps 652 mmHg 61%
    05:00 +16°C° 0 mm 1 mps 652 mmHg 61%
    06:00 +18°C° 0 mm 1 mps 652 mmHg 58%
    07:00 +18°C° 0 mm 1 mps 653 mmHg 55%
    08:00 +19°C° 0 mm 1 mps 654 mmHg 52%
    09:00 +21°C° 0 mm 1 mps 654 mmHg 46%
    10:00 +23°C° 0 mm 2 mps 655 mmHg 41%
    11:00 +26°C° 0 mm 2 mps 655 mmHg 35%
    12:00 +26°C° 0 mm 2 mps 655 mmHg 35%
    13:00 +27°C° 0 mm 3 mps 654 mmHg 34%
    14:00 +27°C° 0 mm 3 mps 653 mmHg 33%
    15:00 +27°C° 0 mm 3 mps 653 mmHg 36%
    16:00 +26°C° 0 mm 3 mps 653 mmHg 38%
    17:00 +25°C° 0 mm 3 mps 653 mmHg 41%
    18:00 +23°C° 0 mm 2 mps 653 mmHg 48%
    19:00 +20°C° 0 mm 2 mps 653 mmHg 55%
    20:00 +19°C° 0 mm 1 mps 653 mmHg 63%
    21:00 +19°C° 0 mm 1 mps 653 mmHg 63%
    22:00 +19°C° 0 mm 1 mps 653 mmHg 64%
    23:00 +18°C° 0 mm 1 mps 653 mmHg 64%

    31 July, Monday

    Time Temperature Precipitation Wind Pressure Humidity
    00:00 +17°C° 0 mm 2 mps 653 mmHg 63%
    01:00 +17°C° 0 mm 2 mps 653 mmHg 63%
    02:00 +16°C° 0 mm 2 mps 652 mmHg 62%
    03:00 +16°C° 0 mm 2 mps 652 mmHg 62%
    04:00 +15°C° 0 mm 2 mps 651 mmHg 63%
    05:00 +15°C° 0 mm 1 mps 651 mmHg 63%
    06:00 +15°C° 0 mm 1 mps 651 mmHg 60%
    07:00 +16°C° 0 mm 1 mps 652 mmHg 57%
    08:00 +16°C° 0 mm 1 mps 652 mmHg 53%
    09:00 +19°C° 0 mm 2 mps 652 mmHg 47%
    10:00 +21°C° 0 mm 2 mps 653 mmHg 41%
    11:00 +25°C° 0 mm 2 mps 653 mmHg 34%
    12:00 +25°C° 0 mm 3 mps 652 mmHg 33%
    13:00 +26°C° 0 mm 3 mps 652 mmHg 32%
    14:00 +27°C° 0 mm 3 mps 651 mmHg 31%
    15:00 +26°C° 0 mm 3 mps 650 mmHg 34%
    16:00 +25°C° 0 mm 3 mps 650 mmHg 36%
    17:00 +24°C° 0 mm 3 mps 650 mmHg 39%
    18:00 +21°C° 0 mm 2 mps 650 mmHg 46%
    19:00 +19°C° 0 mm 2 mps 650 mmHg 53%
    20:00 +18°C° 0 mm 1 mps 650 mmHg 60%
    21:00 +17°C° 0 mm 2 mps 650 mmHg 58%
    22:00 +16°C° 0 mm 2 mps 650 mmHg 57%
    23:00 +16°C° 0 mm 2 mps 650 mmHg 55%

    1 August, Tuesday

    Time Temperature Precipitation Wind Pressure Humidity
    00:00 +16°C° 0 mm 2 mps 650 mmHg 54%
    01:00 +15°C° 0 mm 2 mps 650 mmHg 54%
    02:00 +15°C° 0 mm 2 mps 650 mmHg 53%
    03:00 +15°C° 0 mm 2 mps 649 mmHg 54%
    04:00 +14°C° 0 mm 2 mps 649 mmHg 54%
    05:00 +14°C° 0 mm 2 mps 649 mmHg 54%
    06:00 +14°C° 0 mm 2 mps 650 mmHg 53%
    07:00 +15°C° 0 mm 2 mps 650 mmHg 52%
    08:00 +15°C° 0 mm 2 mps 651 mmHg 50%
    09:00 +17°C° 0 mm 2 mps 651 mmHg 49%
    10:00 +18°C° 0 mm 3 mps 652 mmHg 47%
    11:00 +20°C° 0 mm 3 mps 652 mmHg 45%
    12:00 +20°C° 0 mm 3 mps 651 mmHg 45%
    13:00 +20°C° 0 mm 4 mps 651 mmHg 45%
    14:00 +21°C° 0 mm 4 mps 650 mmHg 44%
    15:00 +19°C° 0 mm 4 mps 650 mmHg 48%
    16:00 +18°C° 0 mm 4 mps 650 mmHg 52%
    17:00 +17°C° 0 mm 3 mps 650 mmHg 56%
    18:00 +14°C° 0 mm 3 mps 651 mmHg 62%
    19:00 +14°C° 0 mm 2 mps 651 mmHg 67%
    20:00 +12°C° 0 mm 2 mps 652 mmHg 73%
    21:00 +12°C° 0 mm 2 mps 652 mmHg 73%
    22:00 +12°C° 0 mm 2 mps 652 mmHg 73%
    23:00 +11°C° 0 mm 1 mps 653 mmHg 73%
    Show more